Regional Weather Roundup
Issued by NWS

Home | Current Version | Previous Version | Text Only | Print | Product List | Glossary Off
Versions: 1 2 3 4 5 6 7 8 9 10 11 12 13 14 15 16 17 18 19 20 21 22 23 24 25 26 27 28 29 30 31 32 33 34 35 36 37 38 39 40 41 42 43 44 45 46 47 48 49 50

988
ASUS43 KOAX 250810
RWRNE

WEATHER ROUNDUP FOR NEBRASKA
NATIONAL WEATHER SERVICE OMAHA NE
300 AM CDT SUN SEP 25 2016

NOTES: SATELLITE DATA IS BEING USED TO AUGMENT CLOUD COVER ABOVE
       12000 FEET.
       "FAIR" INDICATES FEW OR NO CLOUDS BELOW 12,000 FEET WITH NO
       SIGNIFICANT WEATHER AND/OR OBSTRUCTIONS TO VISIBILITY.

  * THESE STATIONS DO NOT REPORT WEATHER SUCH AS RAIN...SNOW OR FOG.

NEZ001>004-019>022-054>056-250900-
NEBRASKA PANHANDLE

CITY           SKY/WX    TMP DP  RH WIND       PRES   REMARKS
SCOTTSBLUFF    CLEAR     46  39  76 NW8       30.27R
ALLIANCE       CLEAR     43  39  86 W10       30.23R
CHADRON        CLOUDY    52  41  66 W18G26    30.23R
KIMBALL        CLEAR     43  39  85 NW9       30.31R
SIDNEY         CLOUDY    48  39  71 NW16      30.27R
$$

NEZ057>060-069>072-079>082-250900-
SOUTHWEST NEBRASKA

CITY           SKY/WX    TMP DP  RH WIND       PRES   REMARKS
NORTH PLATTE   CLEAR     54  43  66 NW12      30.18R
IMPERIAL       CLEAR     52  40  63 NW14      30.23R
LEXINGTON      CLEAR     50  42  76 W8        30.15R
MCCOOK         CLEAR     50  42  74 W8        30.18R
OGALLALA       CLEAR     52  41  68 W7        30.22R
$$

NEZ005>010-023>029-035>040-094-250900-
NORTH CENTRAL NEBRASKA

CITY           SKY/WX    TMP DP  RH WIND       PRES   REMARKS
VALENTINE      CLEAR     51  40  65 NW8       30.11R
AINSWORTH      CLEAR     53  43  69 W13G20    30.10R
BROKEN BOW     CLEAR     55  42  61 NW13G22   30.12R
O`NEILL        CLEAR     55  41  59 W13       30.06R
ORD            CLEAR     57  40  52 NW18G28   30.08R
THEDFORD       CLEAR     53  43  68 NW10G16   30.15R
$$

NEZ041-046>049-061>064-073>077-083>087-250900-
SOUTH CENTRAL NEBRASKA

CITY           SKY/WX    TMP DP  RH WIND       PRES   REMARKS
GRAND ISLAND   PTCLDY    55  45  68 NW12      30.08R
AURORA         PTCLDY    56  49  76 NW8       30.08R
HASTINGS       CLOUDY    55  44  66 NW9       30.10R
HEBRON         CLOUDY    67  61  81 NW16G23   30.05R
HOLDREGE       CLEAR     54  42  62 NW9       30.13R
KEARNEY *      CLEAR     55  39  54 NW12      30.11R
YORK           CLOUDY    57  50  77 NW13      30.06R
$$

NEZ011>018-030>034-042>045-250900-
NORTHEAST NEBRASKA

CITY           SKY/WX    TMP DP  RH WIND       PRES   REMARKS
NORFOLK        PTCLDY    55  46  71 W9        30.04R
ALBION         CLOUDY    53  45  74 NW9       30.06R
BLAIR          CLOUDY    66  65  95 CALM      29.96F
FREMONT        CLOUDY    67  66  98 W8        29.99R
TEKAMAH        CLOUDY    69  67  93 CALM      29.97R
WAYNE          CLOUDY    58  49  71 NW7       30.02R
$$

NEZ050>053-065>068-078-088>093-250900-
SOUTHEAST NEBRASKA

CITY           SKY/WX    TMP DP  RH WIND       PRES   REMARKS
LINCOLN        CLOUDY    66  64  93 SW3       30.01R
OMAHA EPPLEY   LGT RAIN  69  65  86 N5        29.96F
BEATRICE       RAIN      67  66  96 SW10G17   30.01R
FALLS CITY     LGT RAIN  69  68  96 S8        30.01R
NEBRASKA CITY  LGT RAIN  69  67  92 S14       29.99S
PLATTSMOUTH    RAIN      68  65  90 W7        29.99S
$$

NEZ044-045-051>053-067-250900-
OMAHA AREA

CITY           SKY/WX    TMP DP  RH WIND       PRES   REMARKS
OMAHA EPPLEY   LGT RAIN  69  65  86 N5        29.96F
BLAIR          CLOUDY    66  65  95 CALM      29.96F
FREMONT        CLOUDY    67  66  98 W8        29.99R
MILLARD        RAIN      67  65  93 S5        29.98R
OFFUTT AFB     RAIN      68  68 100 SW8       29.98R
PLATTSMOUTH    RAIN      68  65  90 W7        29.99S
WAHOO          CLOUDY    65  64  96 W5        30.00R
$$




USA.gov is the U.S. government's official web portal to all federal, state and local government web resources and services.